Flag for Germany Weather past 2 weeks in Sonneberg, Thuringia, Germany

Now
55 °F

Light rain. Fog.


Feels Like: 55 °F
Forecast: 46 / 61 °F
Wind: 2 mph from Northeast

Location: Hof Airport

Current Time: Oct 1, 2014 at 8:57:04 AM

Latest Report: Oct 1, 2014 at 8:20 AM


Visibility: 1 mi

Pressure: 30.33 "Hg

Humidity: 94%

Dew point: 54 °F

Location of SonnebergLocation

Historic Weather in Sonneberg — Graph

°F

Sonneberg temperature yesterday

Maximum temperature yesterday: 64 °F (at 12:20 PM)
Minimum temperature yesterday: 54 °F (at 12:20 AM)
Average temperature yesterday: 59 °F

Past Weeks' High & Low Weather Summary

 TemperatureHumidityPressure
High72 °F (Sep 19, 1:20 PM)94% (Sep 16, 7:20 AM)30.39 "Hg (Sep 16, 7:20 AM)
Low34 °F (Sep 24, 5:20 AM)46% (Sep 16, 4:50 PM)29.86 "Hg (Sep 24, 7:20 PM)
Average55 °F82%30.11 "Hg
* Reported Sep 16 7:20 AM — Oct 1 7:50 AM, Sonneberg, Weather by CustomWeather, © 2014

Note: Actual official high and low records may vary slightly from our data, if they occured in-between our weather recording intervals... More about our weather records

Advertising

Sonneberg weather history for previous 24 hours

 ConditionsComfort  
Time TempWeatherWind HumidityBarometerVisibility
7:50 AM
Oct 1
55 °FFog.1 mph94%30.33 "Hg0 mi
7:20 AM55 °FFog.2 mph94%30.33 "Hg0 mi
6:50 AM55 °FFog.3 mph94%30.33 "Hg0 mi
6:20 AM55 °FFog.2 mph94%30.33 "Hg1 mi
5:50 AM55 °FFog.2 mph94%30.33 "Hg1 mi
5:20 AM55 °FFog.5 mph94%30.33 "Hg1 mi
4:50 AM55 °FFog.2 mph94%30.33 "Hg2 mi
4:20 AM54 °FFog.1 mph94%30.33 "Hg1 mi
3:50 AM55 °FFog.2 mph94%30.33 "Hg1 mi
3:20 AM55 °FFog.3 mph94%30.33 "Hg2 mi
2:50 AM54 °FFog.2 mph94%30.33 "Hg2 mi
2:20 AM54 °FFog.No wind94%30.33 "Hg1 mi
1:50 AM54 °FFog.No wind94%30.33 "Hg1 mi
1:20 AM55 °FFog.No wind94%30.33 "Hg1 mi
12:50 AM55 °FFog.No wind94%30.33 "Hg2 mi
12:20 AM55 °FFog.No wind94%30.33 "Hg2 mi
11:50 PM
Sep 30
55 °FFog.No wind94%30.33 "Hg2 mi
11:20 PM57 °FFog.No wind88%30.33 "Hg3 mi
10:50 PM57 °FLight rain. Passing clouds.3 mph94%30.33 "Hg3 mi
10:20 PM57 °FPassing clouds.1 mph94%30.33 "Hg4 mi
9:50 PM57 °FPartly cloudy.5 mph94%30.33 "HgN/A
9:20 PM59 °FDrizzle. Overcast.3 mph88%30.33 "HgN/A
8:50 PM59 °FPassing clouds.5 mph88%30.33 "HgN/A
8:20 PM59 °FPassing clouds.5 mph88%30.33 "HgN/A
7:50 PM59 °FLight rain. Broken clouds.3 mph88%30.33 "HgN/A
7:20 PM59 °FPartly sunny.No wind82%30.30 "HgN/A
6:50 PM61 °FPartly sunny.5 mph83%30.30 "HgN/A
6:20 PM61 °FLight rain. Scattered clouds.3 mph83%30.30 "HgN/A
5:50 PM63 °FPartly sunny.3 mph77%30.30 "HgN/A
5:20 PM63 °FPassing clouds.3 mph73%30.30 "HgN/A
4:50 PM63 °FSunny.5 mph73%30.30 "Hg10 mi
4:20 PM63 °FPartly sunny.6 mph73%30.30 "HgN/A
3:50 PM63 °FPartly sunny.6 mph73%30.30 "HgN/A
3:20 PM63 °FOvercast.7 mph73%30.30 "HgN/A
2:50 PM64 °FPartly sunny.6 mph64%30.30 "HgN/A
2:20 PM64 °FPartly sunny.8 mph64%30.30 "HgN/A
1:50 PM64 °FPartly sunny.8 mph68%30.30 "HgN/A
1:20 PM64 °FCloudy.6 mph68%30.30 "HgN/A
12:50 PM64 °FBroken clouds.7 mph68%30.30 "HgN/A
12:20 PM64 °FPartly sunny.7 mph68%30.30 "HgN/A
11:50 AM63 °FOvercast.6 mph73%30.30 "HgN/A
11:20 AM63 °FMostly cloudy.5 mph77%30.30 "HgN/A
10:50 AM63 °FBroken clouds.5 mph77%30.30 "HgN/A
10:20 AM61 °FOvercast.3 mph83%30.30 "HgN/A
9:50 AM59 °FMostly cloudy.1 mph88%30.30 "HgN/A
9:20 AM57 °FPartly sunny.2 mph94%30.30 "HgN/A
8:50 AM57 °FPartly sunny.No wind94%30.27 "HgN/A
8:20 AM57 °FPartly sunny.1 mph88%30.30 "HgN/A
Weather by CustomWeather, © 2014

See weather overviewHow to use our weather pages